| time (UTC) | temp F | wind direction | speed MPH | gust MPH | rain 1hr in | rain 24hr in | rain mn in | humidity % | barometer mb |
| 20260905081539 | 77 | 331 | 3.0 | 6.0 | 0.00 | 0.00 | 0.00 | 68 | 1015.8 |
| 20260905080039 | 77 | 347 | 1.0 | 4.0 | 0.00 | 0.00 | 0.00 | 68 | 1015.7 |
| 20260905074538 | 77 | 301 | 1.0 | 3.0 | 0.00 | 0.00 | 0.00 | 68 | 1015.6 |
| 20260905073038 | 76 | 186 | 0.0 | 0.0 | 0.00 | 0.00 | 0.00 | 70 | 1015.6 |
| 20260905071534 | 75 | 186 | 0.0 | 2.0 | 0.00 | 0.00 | 0.00 | 74 | 1015.6 |
| 20260905070044 | 73 | 186 | 0.0 | 1.0 | 0.00 | 0.00 | 0.00 | 77 | 1015.6 |
| 20260905064537 | 73 | 166 | 2.0 | 3.0 | 0.00 | 0.00 | 0.00 | 76 | 1015.5 |
| 20260905063022 | 72 | 55 | 0.0 | 2.0 | 0.00 | 0.00 | 0.00 | 76 | 1015.4 |
| 20260905061519 | 71 | 55 | 2.0 | 4.0 | 0.00 | 0.00 | 0.00 | 77 | 1015.4 |
| 20260905060021 | 70 | 45 | 0.0 | 0.0 | 0.00 | 0.00 | 0.00 | 78 | 1015.3 |
| 20260905054523 | 69 | 45 | 0.0 | 2.0 | 0.00 | 0.00 | 0.00 | 82 | 1015.2 |
| 20260905053010 | 67 | 29 | 3.0 | 5.0 | 0.00 | 0.00 | 0.00 | 83 | 1015.2 |
| 20260905051515 | 67 | 344 | 1.0 | 3.0 | 0.00 | 0.00 | 0.00 | 83 | 1015.0 |
| 20260905050006 | 67 | 48 | 1.0 | 3.0 | 0.00 | 0.00 | 0.00 | 83 | 1014.8 |
| 20260905044503 | 67 | 48 | 1.0 | 2.0 | 0.00 | 0.00 | 0.00 | 82 | 1014.8 |
| 20260905043002 | 67 | 48 | 0.0 | 4.0 | 0.00 | 0.00 | 0.00 | 82 | 1014.5 |
| 20260905041501 | 68 | 40 | 2.0 | 4.0 | 0.00 | 0.00 | 0.00 | 81 | 1014.5 |
| 20260905040001 | 68 | 22 | 3.0 | 6.0 | 0.00 | 0.00 | 0.00 | 80 | 1014.6 |
| 20260905034608 | 69 | 44 | 2.0 | 5.0 | 0.00 | 0.00 | 0.00 | 80 | 1014.5 |
| 20260905033058 | 68 | 41 | 4.0 | 6.0 | 0.00 | 0.00 | 0.00 | 80 | 1014.7 |
| 20260905031557 | 68 | 55 | 3.0 | 5.0 | 0.00 | 0.00 | 0.00 | 80 | 1014.8 |
| 20260905030116 | 68 | 26 | 2.0 | 5.0 | 0.00 | 0.00 | 0.00 | 80 | 1014.9 |
| 20260905024557 | 68 | 41 | 1.0 | 4.0 | 0.00 | 0.00 | 0.00 | 80 | 1015.0 |
| 20260905023055 | 68 | 42 | 1.0 | 3.0 | 0.00 | 0.00 | 0.00 | 80 | 1014.9 |
| 20260905021553 | 68 | 42 | 0.0 | 3.0 | 0.00 | 0.00 | 0.00 | 79 | 1014.8 |
| 20260905020052 | 68 | 42 | 0.0 | 2.0 | 0.00 | 0.00 | 0.00 | 79 | 1015.0 |
| 20260905014556 | 69 | 31 | 0.0 | 3.0 | 0.00 | 0.00 | 0.00 | 78 | 1015.0 |
| 20260905013052 | 68 | 5 | 2.0 | 5.0 | 0.00 | 0.00 | 0.00 | 78 | 1015.0 |
| 20260905011551 | 69 | 38 | 1.0 | 3.0 | 0.00 | 0.00 | 0.00 | 77 | 1015.0 |
| 20260905010047 | 69 | 38 | 3.0 | 4.0 | 0.00 | 0.00 | 0.00 | 76 | 1015.2 |
| 20260905004547 | 69 | 32 | 3.0 | 5.0 | 0.00 | 0.00 | 0.00 | 74 | 1015.1 |
| 20260905003044 | 69 | 34 | 2.0 | 5.0 | 0.00 | 0.00 | 0.00 | 74 | 1015.3 |
| 20260905001543 | 69 | 40 | 3.0 | 4.0 | 0.00 | 0.00 | 0.00 | 73 | 1015.4 |
| 20260905000042 | 69 | 40 | 3.0 | 5.0 | 0.00 | 0.00 | 0.00 | 73 | 1015.5 |
| 20260904234545 | 69 | 44 | 3.0 | 5.0 | 0.00 | 0.00 | 0.00 | 72 | 1015.6 |
| 20260904233037 | 69 | 45 | 2.0 | 5.0 | 0.00 | 0.00 | 0.00 | 72 | 1015.6 |
| 20260904231536 | 70 | 344 | 1.0 | 3.0 | 0.00 | 0.00 | 0.00 | 72 | 1015.6 |
| 20260904230035 | 70 | 340 | 2.0 | 5.0 | 0.00 | 0.00 | 0.00 | 72 | 1015.6 |
| 20260904224533 | 70 | 43 | 1.0 | 3.0 | 0.00 | 0.00 | 0.00 | 72 | 1015.8 |
| 20260904223043 | 70 | 44 | 3.0 | 6.0 | 0.00 | 0.00 | 0.00 | 72 | 1015.8 |
| 20260904221543 | 71 | 48 | 2.0 | 4.0 | 0.00 | 0.00 | 0.00 | 72 | 1015.6 |
| 20260904220026 | 71 | 49 | 2.0 | 4.0 | 0.00 | 0.00 | 0.00 | 72 | 1015.8 |
| 20260904214524 | 72 | 355 | 2.0 | 4.0 | 0.00 | 0.00 | 0.00 | 74 | 1015.8 |
| 20260904213024 | 72 | 44 | 2.0 | 5.0 | 0.00 | 0.00 | 0.00 | 73 | 1015.9 |
| 20260904211530 | 73 | 17 | 2.0 | 3.0 | 0.00 | 0.00 | 0.00 | 72 | 1016.0 |
| 20260904210023 | 74 | 42 | 1.0 | 4.0 | 0.00 | 0.00 | 0.00 | 72 | 1016.2 |
| 20260904204527 | 75 | 42 | 1.0 | 2.0 | 0.00 | 0.00 | 0.00 | 70 | 1016.2 |
| 20260904203030 | 75 | 44 | 0.0 | 3.0 | 0.00 | 0.00 | 0.00 | 71 | 1016.3 |
| 20260904201529 | 75 | 44 | 1.0 | 3.0 | 0.00 | 0.00 | 0.00 | 72 | 1016.4 |
| 20260904200022 | 77 | 56 | 1.0 | 3.0 | 0.00 | 0.00 | 0.00 | 70 | 1016.2 |
| 20260904194548 | 77 | 81 | 2.0 | 3.0 | 0.00 | 0.00 | 0.00 | 69 | 1016.1 |
| 20260904193034 | 78 | 179 | 1.0 | 2.0 | 0.00 | 0.00 | 0.00 | 70 | 1016.0 |
| 20260904191520 | 78 | 179 | 0.0 | 1.0 | 0.00 | 0.00 | 0.00 | 69 | 1015.9 |
| 20260904190019 | 79 | 35 | 1.0 | 3.0 | 0.00 | 0.00 | 0.00 | 69 | 1015.7 |
| 20260904184519 | 80 | 35 | 2.0 | 3.0 | 0.00 | 0.00 | 0.00 | 66 | 1015.6 |
| 20260904183019 | 82 | 32 | 2.0 | 3.0 | 0.00 | 0.00 | 0.00 | 64 | 1015.4 |
| 20260904181518 | 84 | 252 | 0.0 | 1.0 | 0.00 | 0.00 | 0.00 | 58 | 1015.3 |
| 20260904180019 | 85 | 252 | 0.0 | 1.0 | 0.00 | 0.00 | 0.00 | 56 | 1015.3 |
| 20260904174517 | 86 | 252 | 0.0 | 1.0 | 0.00 | 0.00 | 0.00 | 55 | 1015.2 |
| 20260904173022 | 87 | 252 | 0.0 | 2.0 | 0.00 | 0.00 | 0.00 | 51 | 1015.1 |
| 20260904171524 | 88 | 252 | 0.0 | 1.0 | 0.00 | 0.00 | 0.00 | 50 | 1015.0 |
| 20260904170013 | 88 | 306 | 1.0 | 3.0 | 0.00 | 0.00 | 0.00 | 49 | 1015.2 |
| 20260904164513 | 89 | 312 | 0.0 | 3.0 | 0.00 | 0.00 | 0.00 | 47 | 1015.2 |
| 20260904163011 | 90 | 333 | 1.0 | 5.0 | 0.00 | 0.00 | 0.00 | 45 | 1015.3 |
| 20260904161510 | 91 | 148 | 1.0 | 3.0 | 0.00 | 0.00 | 0.00 | 43 | 1015.3 |
| 20260904160010 | 90 | 172 | 1.0 | 3.0 | 0.00 | 0.00 | 0.00 | 41 | 1015.4 |
| 20260904154507 | 90 | 208 | 4.0 | 10.0 | 0.00 | 0.00 | 0.00 | 43 | 1015.5 |
| 20260904153020 | 90 | 170 | 4.0 | 9.0 | 0.00 | 0.00 | 0.00 | 45 | 1015.6 |
| 20260904151505 | 91 | 271 | 3.0 | 9.0 | 0.00 | 0.00 | 0.00 | 45 | 1015.7 |
| 20260904150004 | 92 | 188 | 3.0 | 6.0 | 0.00 | 0.00 | 0.00 | 43 | 1015.8 |
| 20260904144503 | 92 | 300 | 4.0 | 7.0 | 0.00 | 0.00 | 0.00 | 43 | 1015.9 |
| 20260904143101 | 92 | 319 | 2.0 | 8.0 | 0.00 | 0.00 | 0.00 | 43 | 1015.9 |
| 20260904141622 | 90 | 272 | 3.0 | 9.0 | 0.00 | 0.00 | 0.00 | 46 | 1016.1 |
| 20260904140107 | 91 | 178 | 2.0 | 9.0 | 0.00 | 0.00 | 0.00 | 45 | 1016.0 |
| 20260904134558 | 89 | 219 | 4.0 | 9.0 | 0.00 | 0.00 | 0.00 | 47 | 1016.3 |
| 20260904133108 | 89 | 5 | 2.0 | 10.0 | 0.00 | 0.00 | 0.00 | 47 | 1016.3 |
| 20260904131608 | 90 | 222 | 3.0 | 11.0 | 0.00 | 0.00 | 0.00 | 47 | 1016.4 |
| 20260904130051 | 89 | 169 | 3.0 | 7.0 | 0.00 | 0.00 | 0.00 | 47 | 1016.6 |
| 20260904124547 | 88 | 140 | 3.0 | 9.0 | 0.00 | 0.00 | 0.00 | 49 | 1016.8 |
| 20260904123045 | 89 | 163 | 2.0 | 5.0 | 0.00 | 0.00 | 0.00 | 48 | 1016.9 |
| 20260904121544 | 88 | 231 | 4.0 | 6.0 | 0.00 | 0.00 | 0.00 | 48 | 1017.1 |
| 20260904120045 | 88 | 208 | 2.0 | 4.0 | 0.00 | 0.00 | 0.00 | 49 | 1017.2 |
| 20260904114538 | 88 | 161 | 3.0 | 8.0 | 0.00 | 0.00 | 0.00 | 48 | 1017.2 |
| 20260904113039 | 87 | 111 | 2.0 | 8.0 | 0.00 | 0.00 | 0.00 | 48 | 1017.4 |
| 20260904111535 | 87 | 146 | 2.0 | 6.0 | 0.00 | 0.00 | 0.00 | 50 | 1017.5 |
| 20260904110033 | 86 | 267 | 3.0 | 7.0 | 0.00 | 0.00 | 0.00 | 50 | 1017.6 |
| 20260904104531 | 85 | 221 | 3.0 | 7.0 | 0.00 | 0.00 | 0.00 | 50 | 1017.8 |
| 20260904103028 | 85 | 13 | 1.0 | 7.0 | 0.00 | 0.00 | 0.00 | 49 | 1017.9 |
| 20260904101526 | 85 | 151 | 1.0 | 4.0 | 0.00 | 0.00 | 0.00 | 50 | 1018.1 |
| 20260904100022 | 84 | 116 | 3.0 | 7.0 | 0.00 | 0.00 | 0.00 | 50 | 1018.3 |
| 20260904094548 | 84 | 57 | 1.0 | 6.0 | 0.00 | 0.00 | 0.00 | 51 | 1018.4 |
| 20260904084534 | 82 | 110 | 2.0 | 5.0 | 0.00 | 0.00 | 0.00 | 53 | 1018.6 |
| 20260904083029 | 82 | 138 | 2.0 | 5.0 | 0.00 | 0.00 | 0.00 | 53 | 1018.5 |